Wind_Speed
46 48 50 59 67 69 70 76 79 84 95 104 107 112 117 118 124 124 119 112 108 96 93 89 82 75 71 64 58 54 53 49 49 43 39 39 39 38 43 42 40 39 38 39 40 37 39 41 42 42 43 46 51 54
43 43 47 55 60 65 69 74 78 82 92 104 107 111 117 117 120 124 120 113 109 101 95 90 83 78 73 68 62 56 57 54 45 41 42 38 40 38 37 37 35 37 38 39 40 41 43 45 43 45 46 47 50 53
42 42 45 52 58 64 69 74 78 83 91 102 105 107 113 118 119 121 121 114 110 103 96 93 85 81 76 71 64 60 56 57 51 44 39 39 39 35 36 37 38 41 41 43 44 47 45 44 46 47 47 50 52 49
42 42 46 52 59 66 69 73 78 82 90 100 103 108 110 116 117 121 121 118 110 104 95 91 87 81 79 75 69 64 63 57 49 45 43 43 38 35 35 33 38 40 42 43 46 46 43 43 42 44 48 50 47 46
44 44 48 55 62 68 70 75 77 82 90 100 104 106 108 114 119 120 120 115 110 102 94 92 89 84 82 77 72 69 66 58 53 49 46 44 40 36 34 36 38 38 41 41 42 43 41 40 42 45 42 43 46 51
46 48 52 58 64 70 70 75 77 82 90 99 105 104 109 115 118 120 121 118 109 105 99 98 90 86 84 81 76 72 66 59 55 55 50 46 43 38 37 39 39 40 42 43 44 41 40 40 43 41 41 45 47 44
50 51 55 60 66 71 72 74 77 83 89 99 104 103 106 113 117 117 115 111 109 103 97 93 91 88 84 82 78 75 68 65 61 56 52 49 46 41 42 41 39 42 42 43 45 42 39 40 39 41 43 45 47 45
53 55 57 63 69 72 71 74 77 82 88 98 103 103 104 109 116 119 116 113 108 107 100 92 90 85 87 83 78 71 69 66 61 56 54 50 47 45 46 40 41 43 46 44 44 42 39 41 41 42 45 47 45 47
56 58 60 65 71 74 73 75 78 83 89 98 103 105 107 110 110 116 119 115 113 110 102 97 89 92 90 83 78 74 71 64 58 56 54 51 48 50 45 42 43 47 48 47 44 43 40 42 41 44 48 48 48 50
59 62 62 67 72 76 76 76 79 85 94 103 104 104 105 103 110 119 121 122 122 113 104 99 97 94 88 82 78 74 71 64 58 58 55 49 52 50 43 43 45 48 49 47 44 42 40 40 41 46 49 47 48 51
62 64 64 68 74 79 79 79 82 87 94 100 101 102 102 107 115 124 126 125 124 115 107 102 98 93 83 81 78 75 72 67 60 58 52 49 55 47 42 43 45 49 48 45 44 41 40 39 43 46 44 48 51 54
65 67 66 70 77 81 81 79 79 82 88 94 99 101 105 113 121 128 127 123 119 112 104 97 93 85 79 79 82 78 76 66 59 53 49 51 57 44 42 43 46 49 45 45 44 41 40 41 41 42 45 50 54 58
68 70 70 72 81 81 80 79 79 84 93 100 104 103 108 116 121 123 123 123 114 106 101 92 86 82 81 82 84 79 71 63 50 48 48 55 53 41 43 44 47 46 45 47 45 42 41 43 43 44 48 52 57 63
70 71 72 75 82 82 83 84 87 93 100 106 108 110 112 116 111 104 93 92 99 97 93 90 91 86 84 87 84 75 70 56 46 44 51 53 45 42 44 44 45 46 46 46 45 44 45 47 50 52 53 57 62 66
73 73 75 82 87 88 90 89 89 92 99 105 105 102 102 94 90 92 100 103 103 98 94 93 89 90 90 87 80 77 65 48 44 52 50 46 41 45 45 44 44 46 47 46 46 45 46 48 49 51 55 61 63 66
79 81 83 92 93 92 93 92 92 92 94 95 97 95 88 90 95 99 101 104 102 101 100 95 91 90 88 84 79 74 59 49 57 51 44 42 45 45 43 43 47 47 48 47 48 46 47 47 49 52 56 60 64 67
72 77 88 95 94 94 92 90 85 84 91 100 97 90 89 89 92 99 104 102 99 97 94 90 88 87 83 81 76 70 62 59 52 46 44 44 43 43 44 46 47 47 50 49 47 45 47 47 50 56 60 62 65 68
81 86 92 91 88 88 86 82 82 83 83 83 90 83 84 89 97 105 106 103 98 94 86 85 85 80 78 76 72 70 64 50 44 45 44 43 44 43 45 46 47 48 47 45 45 48 48 51 55 59 60 63 66 71
77 86 90 85 77 73 70 69 71 73 79 86 82 86 95 101 105 109 109 103 97 93 85 77 76 74 73 72 66 68 58 46 45 43 42 42 44 45 45 45 46 46 46 46 48 48 51 53 56 58 61 64 69 75
83 87 83 77 77 73 70 70 73 79 89 90 92 95 101 105 110 110 108 101 94 88 84 77 77 74 68 62 67 62 54 46 44 42 43 43 45 46 45 46 45 44 45 46 49 50 51 54 56 59 62 68 74 79
86 86 79 73 74 75 73 73 76 85 94 96 97 99 108 109 106 106 104 98 91 84 83 83 73 63 62 56 56 63 52 45 44 46 43 45 46 46 44 43 43 44 46 46 47 51 53 53 57 60 66 72 77 82
77 74 74 76 75 72 71 72 78 85 90 94 95 98 105 107 105 103 103 94 86 82 79 73 77 64 63 65 64 59 49 47 47 43 43 45 48 48 45 44 45 45 44 46 50 52 53 56 58 65 70 75 81 86
68 66 67 69 70 69 70 72 80 89 91 89 91 98 105 107 105 103 98 92 88 86 85 79 75 73 70 67 60 50 48 46 44 43 46 47 47 47 45 43 44 45 47 50 50 52 54 57 64 69 74 79 84 90
66 61 62 63 65 68 72 78 84 86 87 86 87 91 95 98 96 91 89 87 83 84 84 81 75 73 68 60 53 51 48 45 46 46 46 46 46 44 43 44 46 47 48 49 51 54 56 62 67 72 78 84 88 92
63 63 63 65 69 73 73 78 81 81 80 74 73 77 85 87 84 80 81 79 77 77 75 73 76 68 63 55 52 48 45 47 46 47 46 44 43 43 44 45 46 47 49 51 54 56 60 66 72 77 83 86 89 94
63 63 63 67 70 72 76 74 73 72 69 71 75 79 81 81 82 80 79 78 65 64 65 66 62 59 51 49 47 45 44 46 46 45 42 42 43 45 46 46 47 48 51 53 55 59 65 71 76 82 85 87 92 97
67 69 71 70 72 74 75 77 74 71 74 76 77 78 79 79 77 72 68 59 65 68 61 57 56 52 48 45 44 44 45 46 45 42 42 43 44 45 45 47 48 51 53 54 58 64 69 74 80 82 85 90 94 100
70 72 75 75 75 75 75 74 75 77 79 79 79 75 69 65 60 57 56 60 60 57 54 51 48 45 42 40 41 42 42 40 40 42 43 43 43 44 46 48 51 51 53 58 64 68 74 77 79 83 87 91 98 103
71 71 74 76 77 78 79 79 78 77 76 75 71 67 63 59 56 55 54 52 51 50 49 47 38 38 39 41 40 37 38 38 39 40 41 42 45 46 47 49 51 54 58 63 68 74 75 77 82 85 90 96 100 105
74 76 77 79 80 80 80 78 76 74 73 70 66 61 56 55 52 45 43 41 40 35 34 37 38 37 37 36 38 38 38 37 38 41 43 44 45 46 49 52 55 58 62 68 73 74 76 80 84 89 94 99 104 107
73 74 77 79 79 79 78 77 75 73 71 70 66 63 56 53 53 44 38 32 32 30 34 36 36 35 34 35 36 38 39 41 42 42 43 44 47 50 53 56 59 64 69 72 72 74 79 83 87 92 97 102 105 107
69 67 70 73 70 68 67 67 64 63 61 60 59 58 52 47 44 42 37 40 39 35 32 29 28 29 31 34 37 38 40 41 40 41 44 47 51 54 57 61 66 68 70 71 73 79 82 87 91 95 99 103 106 108
68 68 66 63 60 59 59 56 54 54 54 56 54 59 58 54 48 46 39 33 32 31 31 32 33 34 35 37 40 40 40 41 43 45 48 51 55 59 62 66 68 68 69 74 78 82 87 91 95 99 103 105 106 106
Wind_Direction
230 226 221 218 217 215 211 209 208 206 204 203 203 203 205 204 203 202 201 203 203 203 208 209 210 214 217 216 216 219 221 224 229 234 233 240 245 246 252 257 260 264 269 272 280 284 280 280 286 292 288 285 287 291
229 223 216 214 212 209 206 205 204 205 203 202 202 202 204 203 202 201 201 202 202 203 207 209 209 213 216 216 214 218 221 226 230 231 233 236 243 247 254 261 263 269 271 275 277 283 281 279 289 289 287 286 290 291
225 219 210 207 204 202 202 201 201 201 201 200 201 200 203 202 201 200 201 202 202 203 205 207 207 212 215 216 214 218 221 225 228 227 233 237 241 245 253 261 266 268 272 274 277 280 284 285 284 284 283 288 292 295
221 214 205 201 198 197 199 199 199 199 199 198 199 199 201 201 201 200 201 202 201 203 204 206 208 211 215 217 216 217 221 223 226 226 232 240 245 250 255 263 270 274 278 278 279 279 285 285 284 286 287 290 296 299
216 211 201 198 196 195 197 197 197 196 197 197 197 198 199 199 199 199 199 200 200 201 201 204 205 209 215 217 217 218 222 224 226 229 235 240 245 252 259 264 271 279 282 286 287 284 282 283 285 289 292 297 300 303
212 206 199 196 194 194 195 196 195 194 194 195 196 196 196 198 198 199 198 198 198 199 201 204 202 207 213 217 218 219 222 225 227 231 238 242 247 253 261 267 272 279 288 290 291 288 286 282 286 288 293 297 299 303
210 203 198 194 192 193 193 194 193 193 192 194 195 194 195 197 197 197 198 198 198 199 202 203 203 207 212 216 219 220 221 225 227 233 237 240 245 254 259 267 277 282 289 289 293 289 283 286 284 288 294 296 297 299
207 200 197 193 191 191 192 191 192 191 191 192 193 193 193 194 195 196 196 196 197 199 200 203 205 206 213 215 220 221 223 226 229 232 237 242 249 253 260 270 276 285 291 291 292 288 285 289 283 290 294 295 297 301
203 198 195 191 190 189 190 190 190 189 189 190 190 192 192 193 192 192 193 193 198 199 200 202 202 207 214 215 218 223 225 225 228 233 237 243 248 254 263 269 277 285 291 292 293 289 287 290 283 288 292 296 299 306
200 196 193 190 188 187 188 189 189 189 189 190 190 191 191 189 190 191 192 194 197 198 198 200 202 207 212 215 219 223 226 226 225 231 237 242 249 255 261 267 276 283 289 292 295 289 287 286 286 289 291 297 302 306
195 193 191 187 186 185 186 187 189 189 189 188 188 189 188 188 190 191 192 194 196 195 197 198 201 206 211 215 220 224 227 227 228 233 236 244 251 256 260 267 275 284 288 293 298 289 285 287 288 291 296 300 303 303
192 189 189 185 183 183 186 187 189 189 189 188 187 187 187 189 191 193 194 195 196 195 196 198 203 204 209 215 220 224 228 229 230 234 238 243 250 255 260 268 276 284 288 293 294 289 287 288 291 295 298 301 301 303
188 187 184 183 181 183 184 186 186 188 188 187 187 188 189 191 194 195 196 197 195 194 196 195 202 205 208 216 221 225 228 230 230 234 237 243 250 254 260 268 276 285 289 293 292 288 289 290 292 295 297 300 303 305
184 183 180 179 178 181 182 184 186 188 187 186 187 188 189 192 194 194 194 194 192 191 194 196 199 204 211 218 223 226 229 227 227 231 237 244 249 255 262 270 279 288 287 291 285 283 287 289 291 295 299 302 303 304
181 177 176 175 176 179 182 184 185 187 187 186 187 189 192 191 188 190 190 190 187 189 194 198 201 204 213 218 223 227 228 223 227 234 239 244 252 257 265 274 281 287 287 287 281 282 288 291 292 296 300 301 303 304
178 174 172 173 177 179 183 184 186 186 186 185 186 189 186 184 186 187 187 186 186 190 194 198 202 208 214 218 222 227 227 224 230 234 239 246 250 259 269 276 283 284 289 286 278 282 289 292 299 300 300 301 303 305
172 173 174 175 177 180 182 185 185 183 183 184 184 184 181 183 184 185 185 183 187 191 194 198 203 208 214 219 223 226 226 224 229 234 240 245 254 263 270 277 281 287 289 282 279 283 288 295 298 299 300 303 304 305
172 172 173 180 181 182 182 182 182 183 183 178 181 178 177 181 183 183 181 185 187 191 191 199 204 208 213 217 220 222 224 224 229 234 239 249 258 265 274 278 284 285 282 279 281 284 290 295 297 299 301 302 304 307
169 171 175 179 179 180 180 177 177 178 175 178 177 175 176 179 180 182 185 187 187 190 192 197 203 208 213 216 221 226 227 228 229 237 245 253 260 269 274 277 282 281 280 283 285 288 290 294 297 299 301 304 307 307
167 171 177 174 173 176 176 176 174 173 174 174 175 177 178 180 182 183 185 185 188 188 188 194 204 209 215 219 224 230 231 230 234 242 250 257 264 269 272 278 279 279 281 284 285 287 291 295 297 300 304 306 307 309
167 171 171 169 170 173 175 175 174 173 173 174 176 177 179 181 183 184 185 187 187 187 190 196 205 204 206 209 212 225 234 235 240 247 254 261 265 266 274 276 276 278 280 281 285 290 292 296 300 303 304 305 307 310
167 165 165 167 169 170 171 170 172 173 175 175 176 178 179 181 184 185 186 187 186 189 196 203 207 208 214 220 227 232 235 241 244 251 259 263 265 269 273 271 274 277 280 284 287 290 294 297 301 302 305 307 310 311
162 162 162 164 165 166 166 168 170 172 174 175 177 178 179 182 183 184 184 185 190 197 202 204 209 213 220 225 230 234 238 242 248 253 258 263 269 271 269 270 274 277 281 284 288 292 297 300 301 304 308 310 311 313
157 159 160 162 161 162 164 166 168 171 173 176 177 178 180 180 182 183 186 189 195 203 205 207 213 218 222 226 231 234 238 245 249 253 260 266 266 267 269 271 274 278 282 287 291 295 297 299 303 307 308 310 312 314
152 154 156 157 159 158 162 165 167 169 170 172 174 175 177 178 177 183 187 191 199 208 210 213 218 220 224 227 230 235 242 247 252 256 261 262 264 266 269 271 275 281 285 289 292 296 299 302 305 307 309 312 314 314
145 148 152 151 154 156 158 159 161 164 166 166 168 171 174 177 182 185 190 196 202 208 211 216 218 222 225 229 235 238 243 251 255 258 258 261 262 265 268 272 278 284 288 291 295 298 301 304 306 309 312 313 314 315
141 143 144 146 149 152 155 157 158 160 161 163 164 167 172 177 181 187 193 199 208 211 215 217 223 228 230 235 237 245 251 253 255 252 258 260 261 265 271 278 283 286 289 295 298 300 302 304 307 311 312 313 313 314
139 141 144 146 148 150 153 155 155 157 157 157 162 165 168 176 184 189 195 202 206 211 217 221 226 226 231 238 247 249 248 249 250 254 257 259 265 271 275 280 284 288 294 296 298 300 302 307 310 311 312 312 312 315
140 144 146 147 147 147 149 149 150 154 159 161 161 166 173 178 182 186 192 199 207 213 221 227 231 236 241 243 240 241 247 250 253 257 262 267 271 275 280 284 289 292 293 297 298 301 306 308 309 310 310 312 314 316
139 141 141 142 144 145 148 152 156 159 161 165 167 171 175 184 188 190 192 200 207 219 229 239 239 235 237 241 238 245 249 253 258 263 267 271 276 280 283 287 290 293 295 296 299 304 306 307 308 309 311 313 315 316
140 143 146 148 151 154 157 161 163 165 169 173 176 179 184 192 194 199 210 213 218 226 232 236 241 245 247 248 247 248 251 256 261 267 272 276 279 282 285 289 291 293 296 299 303 304 305 306 308 310 313 314 317 318
146 149 154 156 158 161 164 166 168 171 174 177 181 185 189 195 202 212 220 226 234 242 246 246 248 249 250 251 252 255 259 263 267 272 276 278 282 284 288 290 293 296 298 302 302 303 305 307 309 311 313 315 317 318
157 158 161 162 165 170 172 174 176 179 183 186 190 193 197 206 216 222 227 227 232 240 246 247 247 249 253 257 259 260 263 267 270 274 278 280 284 288 290 293 295 298 300 301 303 305 306 308 309 311 313 316 317 320
Height
10043 10051 10061 10069 10081 10096 10114 10132 10150 10169 10189 10211 10235 10260 10281 10313 10344 10377 10406 10428 10456 10480 10496 10518 10533 10548 10560 10576 10593 10602 10609 10618 10621 10630 10637 10642 10646 10649 10649 10652 10655 10659 10661 10660 10661 10661 10658 10657 10655 10654 10649 10645 10641 10637
10031 10039 10048 10057 10070 10085 10102 10119 10138 10156 10176 10198 10222 10247 10271 10302 10333 10363 10390 10417 10444 10466 10484 10505 10524 10536 10549 10564 10578 10588 10597 10606 10617 10624 10627 10633 10636 10638 10642 10642 10647 10649 10649 10650 10651 10648 10647 10647 10645 10642 10637 10634 10630 10626
10020 10028 10037 10048 10061 10075 10091 10108 10126 10144 10164 10187 10211 10236 10260 10292 10323 10355 10381 10405 10429 10452 10471 10493 10511 10524 10537 10551 10568 10578 10588 10594 10603 10615 10621 10624 10625 10631 10633 10635 10637 10637 10639 10640 10639 10636 10637 10635 10634 10629 10626 10622 10618 10613
10010 10019 10029 10040 10053 10067 10083 10099 10117 10135 10155 10177 10201 10226 10253 10284 10314 10341 10368 10392 10417 10440 10466 10486 10501 10516 10527 10539 10556 10568 10573 10585 10598 10606 10610 10614 10618 10622 10625 10628 10625 10626 10627 10628 10627 10626 10625 10621 10620 10618 10613 10609 10605 10601
10001 10011 10022 10033 10046 10060 10076 10091 10108 10127 10146 10168 10191 10217 10246 10277 10304 10331 10356 10381 10407 10429 10459 10472 10488 10504 10513 10527 10544 10554 10564 10576 10588 10596 10601 10605 10609 10614 10617 10617 10615 10617 10617 10618 10617 10615 10614 10610 10607 10604 10601 10598 10594 10589
9993 10002 10014 10026 10039 10054 10069 10085 10102 10119 10139 10159 10183 10209 10238 10266 10291 10317 10340 10367 10397 10418 10439 10450 10477 10492 10503 10515 10529 10543 10558 10570 10579 10583 10590 10597 10601 10607 10607 10605 10608 10608 10608 10607 10605 10604 10601 10598 10596 10593 10591 10588 10583 10578
9983 9994 10007 10019 10033 10048 10062 10079 10097 10114 10132 10152 10177 10204 10230 10255 10283 10312 10345 10376 10396 10417 10433 10451 10465 10479 10491 10505 10519 10533 10548 10558 10566 10574 10582 10588 10593 10597 10595 10595 10599 10599 10601 10598 10594 10593 10590 10586 10584 10582 10580 10577 10572 10567
9974 9986 9999 10012 10026 10043 10059 10075 10091 10108 10127 10147 10172 10199 10224 10249 10273 10303 10335 10363 10383 10399 10417 10438 10454 10470 10480 10497 10510 10527 10538 10548 10556 10567 10573 10579 10584 10585 10583 10590 10589 10590 10590 10588 10585 10581 10578 10576 10574 10571 10568 10565 10559 10555
9965 9978 9991 10006 10021 10037 10053 10069 10085 10103 10122 10143 10165 10186 10208 10233 10268 10300 10323 10346 10363 10384 10405 10424 10447 10461 10472 10489 10502 10512 10523 10537 10550 10558 10564 10571 10573 10572 10577 10580 10581 10580 10579 10576 10574 10570 10568 10566 10563 10560 10556 10552 10548 10544
9956 9970 9984 9998 10015 10032 10048 10065 10081 10096 10112 10129 10153 10179 10206 10242 10268 10285 10305 10320 10335 10365 10394 10415 10436 10453 10466 10482 10493 10504 10515 10529 10543 10548 10556 10564 10560 10563 10571 10573 10572 10570 10568 10566 10563 10560 10557 10555 10552 10549 10546 10542 10537 10533
9948 9963 9978 9994 10010 10028 10043 10059 10074 10089 10106 10129 10156 10182 10213 10233 10248 10262 10278 10298 10322 10355 10382 10404 10422 10441 10462 10473 10484 10494 10504 10518 10532 10540 10551 10553 10546 10557 10563 10563 10562 10560 10558 10556 10553 10550 10547 10545 10542 10539 10535 10532 10527 10521
9941 9957 9972 9990 10007 10025 10041 10059 10076 10097 10118 10139 10161 10183 10201 10215 10230 10242 10264 10294 10327 10360 10386 10407 10425 10444 10458 10467 10473 10483 10493 10509 10525 10534 10542 10541 10536 10550 10553 10553 10552 10550 10548 10546 10543 10540 10538 10536 10532 10529 10525 10520 10515 10509
9934 9950 9968 9985 10005 10024 10043 10059 10078 10092 10107 10130 10149 10172 10187 10198 10209 10236 10263 10293 10337 10370 10390 10412 10429 10442 10450 10457 10464 10476 10491 10505 10520 10527 10532 10528 10531 10542 10543 10543 10542 10540 10538 10535 10533 10531 10529 10526 10522 10518 10514 10509 10503 10496
9930 9947 9966 9986 10006 10024 10040 10053 10064 10075 10095 10116 10136 10153 10172 10191 10220 10263 10309 10344 10366 10384 10396 10411 10422 10433 10444 10447 10459 10474 10486 10501 10513 10520 10519 10519 10527 10532 10533 10533 10532 10531 10528 10526 10524 10521 10519 10516 10512 10508 10503 10497 10490 10483
9926 9945 9964 9983 10000 10014 10027 10041 10059 10079 10098 10118 10140 10169 10186 10219 10261 10287 10304 10326 10350 10368 10386 10398 10414 10429 10432 10444 10458 10469 10483 10500 10507 10503 10509 10515 10520 10521 10522 10522 10522 10520 10518 10516 10513 10511 10508 10505 10501 10497 10491 10484 10477 10469
9918 9935 9955 9972 9989 10006 10021 10040 10056 10077 10102 10132 10153 10174 10204 10234 10252 10273 10300 10320 10342 10357 10370 10388 10406 10419 10429 10442 10455 10465 10483 10493 10487 10495 10504 10508 10510 10512 10513 10512 10511 10509 10507 10505 10503 10500 10497 10494 10490 10485 10478 10472 10464 10455
9937 9952 9963 9973 9987 10004 10025 10043 10066 10091 10110 10124 10154 10183 10210 10238 10263 10283 10302 10324 10339 10356 10374 10389 10402 10410 10427 10439 10452 10462 10470 10471 10482 10492 10495 10499 10502 10503 10503 10502 10500 10499 10496 10494 10491 10489 10486 10483 10478 10472 10466 10459 10451 10441
9930 9947 9965 9983 10000 10014 10033 10055 10075 10095 10117 10150 10167 10193 10218 10238 10257 10273 10295 10313 10334 10355 10373 10382 10396 10411 10422 10432 10441 10445 10453 10470 10480 10484 10487 10491 10493 10493 10492 10490 10489 10488 10486 10483 10480 10478 10475 10471 10465 10459 10452 10444 10436 10427
9948 9961 9975 9991 10019 10040 10058 10073 10091 10110 10135 10156 10177 10196 10210 10228 10248 10266 10285 10306 10328 10348 10367 10383 10396 10407 10417 10424 10432 10441 10455 10466 10472 10476 10479 10482 10483 10483 10481 10479 10479 10477 10475 10472 10470 10467 10464 10459 10453 10447 10439 10430 10421 10410
9951 9971 9986 10007 10025 10042 10063 10081 10097 10113 10130 10154 10172 10191 10212 10229 10244 10265 10285 10308 10329 10351 10367 10382 10389 10401 10411 10421 10429 10439 10451 10461 10464 10467 10470 10472 10472 10471 10471 10470 10469 10467 10464 10462 10459 10456 10452 10446 10441 10434 10426 10416 10405 10395
9952 9967 9990 10015 10032 10047 10064 10082 10101 10116 10131 10152 10170 10191 10210 10229 10251 10271 10294 10312 10331 10352 10366 10379 10388 10397 10407 10417 10426 10433 10445 10451 10455 10458 10460 10461 10461 10461 10460 10459 10458 10457 10454 10452 10448 10444 10439 10433 10427 10420 10412 10402 10392 10382
9973 9990 10007 10021 10039 10058 10075 10093 10111 10130 10146 10161 10177 10196 10216 10236 10255 10276 10295 10318 10337 10351 10361 10370 10380 10392 10401 10410 10419 10430 10439 10442 10446 10449 10450 10451 10450 10450 10449 10448 10448 10446 10444 10441 10437 10432 10427 10422 10415 10406 10397 10387 10377 10366
9999 10014 10028 10041 10054 10069 10085 10102 10119 10133 10151 10172 10187 10202 10219 10239 10259 10277 10301 10321 10333 10343 10353 10366 10378 10388 10398 10408 10419 10426 10431 10435 10438 10439 10440 10441 10440 10439 10439 10438 10437 10435 10433 10429 10425 10420 10414 10407 10400 10391 10382 10372 10362 10350
10013 10033 10045 10058 10071 10085 10098 10110 10127 10147 10162 10179 10197 10215 10231 10250 10272 10298 10316 10330 10339 10346 10357 10369 10378 10386 10397 10406 10414 10420 10424 10427 10429 10430 10431 10431 10429 10429 10428 10427 10426 10424 10421 10417 10412 10407 10401 10394 10385 10376 10367 10358 10346 10333
10030 10041 10057 10070 10081 10092 10110 10126 10143 10160 10178 10197 10215 10232 10251 10270 10292 10306 10321 10331 10339 10345 10359 10368 10376 10388 10395 10403 10408 10413 10417 10418 10420 10421 10421 10420 10419 10419 10418 10417 10415 10412 10409 10404 10399 10393 10387 10379 10370 10360 10351 10342 10330 10315
10046 10059 10074 10084 10097 10112 10126 10145 10164 10180 10197 10212 10227 10245 10266 10283 10296 10310 10321 10329 10338 10347 10356 10366 10377 10385 10392 10399 10403 10405 10407 10409 10410 10410 10410 10409 10409 10408 10407 10406 10404 10400 10396 10392 10386 10380 10373 10364 10354 10345 10336 10325 10311 10298
10063 10076 10088 10103 10118 10133 10145 10155 10172 10192 10205 10221 10241 10257 10272 10288 10302 10311 10322 10332 10341 10351 10360 10368 10374 10382 10388 10391 10393 10395 10397 10399 10398 10398 10399 10399 10398 10398 10397 10394 10391 10388 10384 10378 10372 10365 10357 10348 10340 10330 10319 10306 10294 10281
10082 10094 10105 10119 10131 10142 10159 10174 10186 10203 10218 10235 10249 10264 10281 10294 10305 10314 10324 10334 10342 10350 10358 10365 10370 10375 10379 10381 10385 10386 10386 10387 10388 10388 10388 10388 10388 10387 10385 10383 10379 10375 10370 10364 10357 10349 10341 10333 10324 10314 10303 10291 10278 10264
10102 10113 10124 10136 10148 10161 10176 10191 10208 10222 10235 10249 10262 10273 10284 10295 10305 10316 10325 10333 10341 10349 10354 10358 10364 10367 10370 10372 10373 10376 10377 10377 10377 10378 10378 10378 10377 10375 10372 10369 10365 10361 10355 10349 10342 10334 10325 10316 10307 10297 10286 10273 10260 10248
10124 10136 10147 10159 10172 10183 10195 10207 10218 10230 10243 10255 10266 10276 10284 10293 10304 10315 10324 10331 10338 10344 10350 10353 10355 10357 10360 10361 10363 10365 10366 10366 10367 10367 10367 10365 10364 10362 10359 10355 10351 10346 10340 10334 10327 10318 10309 10299 10289 10279 10267 10255 10243 10230
10147 10158 10167 10177 10188 10197 10206 10217 10227 10238 10249 10261 10272 10281 10290 10298 10307 10316 10323 10329 10335 10338 10340 10343 10346 10348 10350 10352 10353 10355 10355 10356 10356 10356 10355 10353 10351 10348 10345 10341 10336 10331 10325 10318 10310 10301 10291 10282 10271 10260 10249 10236 10224 10211
10164 10173 10184 10193 10203 10213 10224 10235 10244 10253 10262 10271 10279 10287 10295 10302 10310 10315 10320 10324 10327 10331 10334 10336 10338 10340 10341 10343 10344 10346 10346 10346 10345 10344 10342 10339 10337 10333 10329 10326 10321 10315 10308 10301 10292 10283 10273 10263 10252 10241 10230 10219 10206 10192
10177 10187 10197 10207 10216 10226 10235 10244 10253 10262 10270 10277 10283 10290 10296 10301 10306 10311 10316 10320 10323 10325 10326 10328 10330 10332 10333 10335 10335 10335 10334 10333 10332 10330 10328 10325 10322 10319 10315 10311 10305 10298 10291 10282 10273 10263 10253 10243 10232 10221 10211 10198 10186 10172